No particular awareness of the weather is required.    There are no Weather-warnings


Meteo18 Weather Cam more information Meteo18 Weather Cam


Thunder radar more information blitzortung!


Rain radar more information rain snow radar


Visit our other weather sites:

Template documentation
and downloads

And another site



Weather Underground History page Text

Daily Summary for March 3, 2018 Units:  English    Metric   Both
« Previous Day
Next Day »
Daily Weekly Monthly Yearly Custom
  High: Low: Average:
Temperature: TemperatureC °F 1.7 °F 6 °F
Dew Point: DewpointC °F -1.5 °F 3 °F
Humidity: Humidity % 61 % 81 %
Wind Speed: WindSpeedKMH mph 0.0 mph 4.3 mph
Wind Gust: WindSpeedGustKMH mph - -
Wind:- - South
Pressure: PressurehPa in 990.1 in -
Precipitation: 1.5 in    
Historical Graphs
 
 
Tabular Data for March 3, 2018
Time Temperature Dew Point Pressure Wind Wind Speed Wind Gust Humidity Rainfall Rate (Hourly)
TemperatureC °F DewpointC °F PressurehPa in Calm     Humidity % HourlyPrecipMM in
00:00 1.8 °F -1.5 °F 993.5 in Calm   1.6 mph 79 % 0.0 in
00:06 1.8 °F -1.5 °F 993.5 in NE 1.4 mph 3.2 mph 79 % 0.0 in
00:12 1.8 °F -1.5 °F 993.1 in NNE 3.2 mph 6.4 mph 79 % 0.0 in
00:18 1.7 °F -1.4 °F 993.1 in NNE 6.4 mph 6.4 mph 80 % 0.0 in
00:24 1.9 °F -1.2 °F 993.1 in NNE 3.2 mph 6.4 mph 80 % 0.0 in
00:31 2.1 °F -1.2 °F 993.1 in NE 1.4 mph 4.8 mph 79 % 0.0 in
00:37 2.1 °F -1.2 °F 993.1 in NNE 1.4 mph 4.8 mph 79 % 0.0 in
00:43 2.3 °F -1.1 °F 992.8 in ENE 4.7 mph 6.4 mph 78 % 0.0 in
00:49 2.3 °F -1.1 °F 992.8 in ENE 6.4 mph 8.0 mph 78 % 0.0 in
00:55 2.4 °F -1.2 °F 992.4 in ENE 3.2 mph 9.7 mph 77 % 0.0 in
01:01 2.7 °F -0.9 °F 992.4 in ENE 1.4 mph 8.0 mph 77 % 0.0 in
01:07 2.7 °F -0.9 °F 992.4 in ENE 1.4 mph 6.4 mph 77 % 0.0 in
01:13 2.7 °F -0.9 °F 992.8 in ENE 4.7 mph 6.4 mph 77 % 0.0 in
01:19 2.7 °F -1.1 °F 992.4 in ENE 1.4 mph 3.2 mph 76 % 0.0 in
01:25 2.7 °F -1.1 °F 992.8 in ENE 1.4 mph 4.8 mph 76 % 0.0 in
01:31 2.6 °F -1.0 °F 992.8 in Calm   4.8 mph 77 % 0.0 in
01:37 2.6 °F -1.0 °F 992.8 in ENE 7.9 mph 8.0 mph 77 % 0.0 in
01:43 2.6 °F -1.0 °F 992.4 in NE 4.7 mph 8.0 mph 77 % 0.0 in
01:49 2.6 °F -1.0 °F 992.4 in NNE 4.7 mph 8.0 mph 77 % 0.0 in
01:55 2.6 °F -1.0 °F 992.4 in NNE 6.4 mph 8.0 mph 77 % 0.0 in
02:01 2.6 °F -1.0 °F 992.1 in NNE 4.7 mph 11.3 mph 77 % 0.0 in
02:07 2.7 °F -0.9 °F 992.1 in NE 6.4 mph 9.7 mph 77 % 0.0 in
02:13 2.9 °F -0.9 °F 991.8 in NE 3.2 mph 9.7 mph 76 % 0.0 in
02:19 2.8 °F -1.0 °F 991.8 in NE 4.7 mph 6.4 mph 76 % 0.0 in
02:25 2.8 °F -1.0 °F 991.8 in NE 1.4 mph 4.8 mph 76 % 0.0 in
02:31 2.7 °F -0.9 °F 991.4 in NE 3.2 mph 8.0 mph 77 % 0.0 in
02:37 2.8 °F -0.8 °F 991.4 in ENE 1.4 mph 4.8 mph 77 % 0.0 in
02:43 2.8 °F -0.8 °F 991.1 in NE 4.7 mph 9.7 mph 77 % 0.0 in
02:49 2.9 °F -0.7 °F 991.4 in Calm   3.2 mph 77 % 0.0 in
02:55 2.9 °F -0.9 °F 991.4 in NE 1.4 mph 1.6 mph 76 % 0.0 in
03:01 3.1 °F -0.7 °F 991.4 in NE 3.2 mph 6.4 mph 76 % 0.0 in
03:07 3.1 °F -0.9 °F 991.4 in Calm   1.6 mph 75 % 0.0 in
03:13 3.0 °F -0.8 °F 991.1 in NE 4.7 mph 8.0 mph 76 % 0.0 in
03:19 2.9 °F -0.7 °F 991.1 in NNE 4.7 mph 8.0 mph 77 % 0.0 in
03:25 2.7 °F -0.9 °F 991.1 in NE 4.7 mph 9.7 mph 77 % 0.0 in
03:31 2.6 °F -0.8 °F 991.1 in NNE 6.4 mph 8.0 mph 78 % 0.0 in
03:37 2.6 °F -0.8 °F 990.7 in NE 6.4 mph 9.7 mph 78 % 0.0 in
03:43 2.7 °F -0.8 °F 990.7 in NE 3.2 mph 8.0 mph 78 % 0.0 in
03:49 2.7 °F -0.8 °F 990.7 in NE 7.9 mph 8.0 mph 78 % 0.0 in
03:55 2.8 °F -0.8 °F 990.7 in NNE 3.2 mph 6.4 mph 77 % 0.0 in
04:01 2.8 °F -0.8 °F 990.4 in ENE 3.2 mph 8.0 mph 77 % 0.0 in
04:07 2.7 °F -0.8 °F 990.4 in Calm   4.8 mph 78 % 0.0 in
04:13 2.6 °F -0.7 °F 990.4 in Calm   1.6 mph 79 % 0.0 in
04:19 2.5 °F -0.8 °F 990.4 in ENE 1.4 mph 3.2 mph 79 % 0.0 in
04:25 2.5 °F -0.8 °F 990.1 in ENE 3.2 mph 4.8 mph 79 % 0.0 in
04:31 2.4 °F -0.7 °F 990.1 in NE 1.4 mph 4.8 mph 80 % 0.0 in
04:37 2.3 °F -0.8 °F 990.1 in NE 3.2 mph 3.2 mph 80 % 0.0 in
04:43 2.3 °F -0.6 °F 990.1 in ENE 1.4 mph 4.8 mph 81 % 0.0 in
04:49 2.4 °F -0.5 °F 990.1 in ENE 1.4 mph 3.2 mph 81 % 0.0 in
04:55 2.4 °F -0.7 °F 990.1 in Calm   1.6 mph 80 % 0.0 in
05:01 2.4 °F -0.7 °F 990.1 in NNE 1.4 mph 3.2 mph 80 % 0.0 in
05:07 2.5 °F -0.6 °F 990.1 in Calm   1.6 mph 80 % 0.0 in
05:13 2.3 °F -0.6 °F 990.1 in Calm   1.6 mph 81 % 0.0 in
05:19 2.3 °F -0.6 °F 990.1 in Calm     81 % 0.0 in
05:26 2.4 °F -0.5 °F 990.1 in Calm     81 % 0.0 in
05:32 2.4 °F -0.7 °F 990.1 in Calm     80 % 0.0 in
05:38 2.6 °F -0.7 °F 990.1 in Calm     79 % 0.0 in
05:44 2.4 °F -0.5 °F 990.1 in Calm     81 % 0.0 in
05:50 2.4 °F -0.5 °F 990.1 in Calm     81 % 0.0 in
05:56 2.6 °F -0.3 °F 990.1 in Calm     81 % 0.0 in
06:02 2.6 °F -0.3 °F 990.1 in Calm     81 % 0.0 in
06:08 2.6 °F -0.2 °F 990.1 in Calm     82 % 0.0 in
06:14 2.6 °F -0.2 °F 990.1 in Calm     82 % 0.3 in
06:20 2.5 °F 0.1 °F 990.1 in Calm   1.6 mph 84 % 0.3 in
06:26 2.4 °F 0.3 °F 990.1 in Calm   1.6 mph 86 % 0.3 in
06:32 2.3 °F 0.5 °F 990.1 in Calm   1.6 mph 88 % 0.3 in
06:38 2.2 °F 0.6 °F 990.1 in Calm     89 % 0.5 in
06:44 2.2 °F 0.7 °F 990.1 in Calm   1.6 mph 90 % 0.5 in
06:50 2.2 °F 0.7 °F 990.1 in Calm   1.6 mph 90 % 0.5 in
06:56 2.2 °F 0.9 °F 990.1 in Calm     91 % 0.5 in
07:02 2.2 °F 0.9 °F 990.1 in SSW 1.4 mph 1.6 mph 91 % 0.5 in
07:08 2.2 °F 0.9 °F 990.1 in Calm   1.6 mph 91 % 0.5 in
07:14 2.1 °F 0.9 °F 990.1 in SSW 1.4 mph 1.6 mph 92 % 0.3 in
07:20 2.0 °F 0.8 °F 990.1 in Calm   1.6 mph 92 % 0.3 in
07:26 2.0 °F 0.8 °F 990.1 in Calm   1.6 mph 92 % 0.3 in
07:32 1.9 °F 0.7 °F 990.1 in Calm   1.6 mph 92 % 0.0 in
07:38 1.9 °F 0.7 °F 990.1 in Calm     92 % 0.0 in
07:44 1.9 °F 0.9 °F 990.4 in Calm   1.6 mph 93 % 0.0 in
07:50 2.0 °F 1.0 °F 990.4 in Calm     93 % 0.0 in
07:56 2.1 °F 1.1 °F 990.4 in Calm     93 % 0.3 in
08:03 2.2 °F 1.2 °F 990.4 in Calm     93 % 0.3 in
08:09 2.2 °F 1.2 °F 990.4 in Calm     93 % 0.3 in
08:15 2.2 °F 1.2 °F 990.7 in WNW 1.4 mph 1.6 mph 93 % 0.3 in
08:21 2.3 °F 1.3 °F 990.7 in Calm     93 % 0.3 in
08:27 2.4 °F 1.4 °F 990.7 in Calm   1.6 mph 93 % 0.3 in
08:33 2.5 °F 1.5 °F 990.7 in Calm     93 % 0.5 in
08:39 2.6 °F 1.7 °F 990.7 in Calm     94 % 0.5 in
08:45 2.8 °F 1.8 °F 990.7 in Calm     93 % 0.5 in
08:51 2.9 °F 1.9 °F 990.7 in Calm     93 % 0.5 in
08:57 3.0 °F 2.0 °F 990.7 in Calm   1.6 mph 93 % 0.5 in
09:03 3.1 °F 2.1 °F 991.1 in Calm   1.6 mph 93 % 0.5 in
09:09 3.1 °F 2.1 °F 991.1 in Calm     93 % 0.5 in
09:15 3.1 °F 2.1 °F 991.1 in Calm     93 % 0.5 in
09:21 3.1 °F 2.1 °F 991.1 in Calm   1.6 mph 93 % 0.5 in
09:29 3.2 °F 2.3 °F 991.1 in Calm     94 % 0.5 in
09:35 3.2 °F 2.3 °F 991.4 in Calm     94 % 0.5 in
09:41 3.2 °F 2.2 °F 991.4 in Calm     93 % 0.5 in
09:47 3.2 °F 2.3 °F 991.4 in Calm     94 % 0.5 in
09:53 3.2 °F 2.3 °F 991.4 in Calm   1.6 mph 94 % 0.5 in
09:59 3.1 °F 2.2 °F 991.4 in Calm     94 % 0.5 in
10:06 3.1 °F 2.2 °F 991.4 in Calm   1.6 mph 94 % 0.5 in
10:14 3.2 °F 2.3 °F 991.4 in Calm     94 % 0.3 in
10:20 3.3 °F 2.6 °F 991.4 in Calm     95 % 0.3 in
10:26 3.6 °F 2.9 °F 991.4 in Calm     95 % 0.3 in
10:32 3.8 °F 3.1 °F 991.8 in Calm   1.6 mph 95 % 0.3 in
10:38 3.9 °F 3.0 °F 991.8 in Calm   1.6 mph 94 % 0.3 in
10:44 4.1 °F 3.4 °F 991.8 in Calm     95 % 0.0 in
10:50 4.2 °F 3.5 °F 992.1 in Calm   1.6 mph 95 % 0.0 in
10:56 4.3 °F 3.6 °F 992.1 in Calm     95 % 0.0 in
11:02 4.4 °F 3.7 °F 992.1 in SSW 1.4 mph 1.6 mph 95 % 0.0 in
11:08 4.7 °F 4.0 °F 992.1 in Calm   3.2 mph 95 % 0.0 in
11:14 5.0 °F 4.4 °F 992.4 in SW 3.2 mph 8.0 mph 96 % 0.0 in
11:20 5.3 °F 4.7 °F 992.4 in SW 3.2 mph 6.4 mph 96 % 0.0 in
11:26 5.6 °F 5.0 °F 992.4 in WSW 11.1 mph 17.7 mph 96 % 0.0 in
11:32 6.0 °F 5.4 °F 992.4 in SW 4.7 mph 14.5 mph 96 % 0.0 in
11:38 6.3 °F 5.6 °F 992.4 in WSW 9.7 mph 16.1 mph 95 % 0.0 in
11:44 6.7 °F 6.0 °F 992.8 in West 4.7 mph 11.3 mph 95 % 0.0 in
11:50 7.1 °F 6.4 °F 992.8 in WNW 11.1 mph 16.1 mph 95 % 0.0 in
11:56 7.3 °F 6.2 °F 992.8 in WNW 9.7 mph 22.5 mph 93 % 0.0 in
12:02 7.7 °F 6.6 °F 992.8 in WSW 16.3 mph 24.1 mph 93 % 0.0 in
12:08 8.0 °F 6.8 °F 992.8 in West 17.7 mph 22.5 mph 92 % 0.0 in
12:14 8.3 °F 6.9 °F 992.8 in West 13.0 mph 20.9 mph 91 % 0.0 in
12:20 8.7 °F 7.3 °F 992.8 in WSW 16.3 mph 16.3 mph 91 % 0.0 in
12:26 9.0 °F 7.4 °F 993.1 in West 9.7 mph 17.7 mph 90 % 0.0 in
12:32 9.2 °F 7.5 °F 993.1 in WSW 6.4 mph 22.5 mph 89 % 0.0 in
12:38 9.1 °F 7.2 °F 993.1 in West 7.9 mph 14.5 mph 88 % 0.0 in
12:44 9.1 °F 7.2 °F 993.1 in West 11.1 mph 11.3 mph 88 % 0.0 in
12:50 9.1 °F 7.2 °F 993.5 in West 7.9 mph 12.9 mph 88 % 0.0 in
12:56 9.2 °F 7.1 °F 993.1 in WSW 4.7 mph 12.9 mph 87 % 0.0 in
13:02 9.6 °F 7.4 °F 993.5 in WSW 13.0 mph 13.0 mph 86 % 0.0 in
13:08 9.9 °F 7.1 °F 993.5 in SSW 9.7 mph 19.3 mph 83 % 0.0 in
13:14 10.3 °F 6.8 °F 993.5 in West 16.3 mph 24.1 mph 79 % 0.0 in
13:20 10.7 °F 7.0 °F 993.5 in West 11.1 mph 17.7 mph 78 % 0.0 in
13:26 10.9 °F 7.2 °F 993.5 in West 9.7 mph 19.3 mph 78 % 0.0 in
13:32 10.9 °F 6.6 °F 993.5 in WNW 13.0 mph 20.9 mph 75 % 0.0 in
13:38 10.9 °F 6.4 °F 993.8 in West 7.9 mph 24.1 mph 74 % 0.0 in
13:44 10.9 °F 6.6 °F 993.8 in WSW 9.7 mph 16.1 mph 75 % 0.0 in
13:50 11.3 °F 6.8 °F 993.8 in West 13.0 mph 17.7 mph 74 % 0.0 in
13:56 11.6 °F 6.1 °F 993.8 in West 17.7 mph 38.6 mph 69 % 0.0 in
14:02 11.7 °F 6.4 °F 993.8 in West 22.7 mph 25.7 mph 70 % 0.0 in
14:08 11.9 °F 6.6 °F 993.8 in WSW 13.0 mph 30.6 mph 70 % 0.0 in
14:14 12.1 °F 5.3 °F 993.8 in West 20.9 mph 48.3 mph 63 % 0.0 in
14:20 12.3 °F 6.3 °F 993.8 in WSW 17.7 mph 32.2 mph 67 % 0.0 in
14:26 12.4 °F 5.8 °F 993.8 in WSW 22.7 mph 30.6 mph 64 % 0.0 in
14:32 12.3 °F 5.2 °F 993.8 in WSW 7.9 mph 33.8 mph 62 % 0.0 in
14:38 12.3 °F 5.5 °F 994.1 in West 13.0 mph 25.7 mph 63 % 0.0 in
14:44 12.2 °F 5.8 °F 993.8 in West 9.7 mph 25.7 mph 65 % 0.0 in
14:50 12.1 °F 5.5 °F 993.8 in West 22.7 mph 25.7 mph 64 % 0.0 in
14:56 12.4 °F 6.2 °F 993.8 in West 9.7 mph 19.3 mph 66 % 0.0 in
15:02 12.5 °F 5.2 °F 994.1 in WSW 19.5 mph 25.7 mph 61 % 0.0 in
15:08 12.7 °F 5.6 °F 994.1 in WSW 17.7 mph 29.0 mph 62 % 0.0 in
15:14 12.8 °F 5.5 °F 994.1 in SW 11.1 mph 24.1 mph 61 % 0.0 in
15:20 12.7 °F 5.8 °F 994.1 in SW 11.1 mph 22.5 mph 63 % 0.0 in
15:26 12.6 °F 6.0 °F 994.1 in WSW 6.4 mph 32.2 mph 64 % 0.0 in
15:32 12.6 °F 6.0 °F 994.1 in WSW 17.7 mph 22.5 mph 64 % 0.0 in
15:38 12.3 °F 5.9 °F 994.5 in SW 1.4 mph 20.9 mph 65 % 0.0 in
15:44 12.2 °F 6.0 °F 994.5 in West 6.4 mph 16.1 mph 66 % 0.0 in
15:50 11.9 °F 6.0 °F 994.8 in WSW 32.0 mph 32.2 mph 67 % 0.0 in
15:56 10.7 °F 6.4 °F 994.8 in West 22.7 mph 30.6 mph 75 % 0.3 in
16:02 10.4 °F 6.5 °F 994.8 in WNW 20.9 mph 30.6 mph 77 % 0.3 in
16:08 10.6 °F 6.2 °F 994.5 in West 7.9 mph 20.9 mph 74 % 0.3 in
16:14 11.1 °F 6.6 °F 994.5 in West 6.4 mph 17.7 mph 74 % 0.3 in
16:20 11.3 °F 6.4 °F 994.8 in WSW 11.1 mph 24.1 mph 72 % 0.3 in
16:26 11.6 °F 6.3 °F 994.8 in SW 14.3 mph 27.4 mph 70 % 0.3 in
16:32 11.8 °F 5.9 °F 994.8 in West 11.1 mph 29.0 mph 67 % 0.3 in
16:38 12.0 °F 5.8 °F 994.8 in WSW 11.1 mph 25.7 mph 66 % 0.3 in
16:44 12.1 °F 5.7 °F 994.8 in WNW 13.0 mph 24.1 mph 65 % 0.3 in
16:50 12.2 °F 5.4 °F 994.8 in SW 20.9 mph 27.4 mph 63 % 0.3 in
16:56 12.2 °F 6.3 °F 994.8 in SSW 14.3 mph 19.3 mph 67 % 0.0 in
17:02 12.0 °F 5.8 °F 995.1 in SW 13.0 mph 24.1 mph 66 % 0.0 in
17:08 12.1 °F 5.5 °F 995.1 in SW 9.7 mph 29.0 mph 64 % 0.0 in
17:14 12.1 °F 5.7 °F 995.1 in West 11.1 mph 16.1 mph 65 % 0.0 in
17:20 11.9 °F 5.5 °F 995.1 in SW 9.7 mph 12.9 mph 65 % 0.0 in
17:26 11.7 °F 5.6 °F 995.1 in WNW 11.1 mph 12.9 mph 66 % 0.0 in
17:32 11.5 °F 5.6 °F 995.1 in SW 13.0 mph 13.0 mph 67 % 0.0 in
17:38 11.3 °F 6.0 °F 995.1 in SW 6.4 mph 8.0 mph 70 % 0.0 in
17:45 11.3 °F 6.0 °F 995.5 in SW 4.7 mph 6.4 mph 70 % 0.0 in
17:51 11.4 °F 6.1 °F 995.5 in Calm   3.2 mph 70 % 0.0 in
17:57 11.6 °F 6.3 °F 995.5 in SW 1.4 mph 4.8 mph 70 % 0.0 in
18:03 11.7 °F 5.8 °F 995.5 in Calm   8.0 mph 67 % 0.0 in
18:09 11.6 °F 5.9 °F 995.5 in WSW 1.4 mph 3.2 mph 68 % 0.0 in
18:15 11.4 °F 5.5 °F 995.5 in SW 1.4 mph 3.2 mph 67 % 0.0 in
18:21 11.3 °F 5.4 °F 995.5 in SSW 1.4 mph 4.8 mph 67 % 0.0 in
18:27 11.0 °F 5.5 °F 995.5 in SW 3.2 mph 3.2 mph 69 % 0.0 in
18:33 10.5 °F 5.7 °F 995.8 in SE 3.2 mph 3.2 mph 72 % 0.0 in
18:39 9.8 °F 5.6 °F 995.8 in SSW 3.2 mph 3.2 mph 75 % 0.0 in
18:45 9.1 °F 5.5 °F 995.8 in SSW 1.4 mph 3.2 mph 78 % 0.0 in
18:51 8.8 °F 5.5 °F 996.2 in South 3.2 mph 3.2 mph 80 % 0.0 in
18:57 8.5 °F 5.4 °F 996.2 in SSW 3.2 mph 4.8 mph 81 % 0.0 in
19:03 8.4 °F 5.5 °F 996.2 in South 1.4 mph 4.8 mph 82 % 0.0 in
19:09 8.2 °F 5.3 °F 996.2 in South 1.4 mph 1.6 mph 82 % 0.0 in
19:15 8.1 °F 5.2 °F 996.2 in Calm   1.6 mph 82 % 0.0 in
19:21 8.0 °F 5.3 °F 996.2 in SE 1.4 mph 1.6 mph 83 % 0.0 in
19:27 7.9 °F 5.4 °F 996.5 in Calm   1.6 mph 84 % 0.0 in
19:33 8.0 °F 5.6 °F 996.5 in SE 3.2 mph 3.2 mph 85 % 0.0 in
19:39 7.9 °F 5.4 °F 996.5 in SE 3.2 mph 3.2 mph 84 % 0.0 in
19:45 7.8 °F 5.4 °F 996.5 in SW 1.4 mph 3.2 mph 85 % 0.0 in
19:51 7.6 °F 5.2 °F 996.5 in Calm   1.6 mph 85 % 0.0 in
19:57 7.3 °F 5.1 °F 996.5 in Calm     86 % 0.0 in
20:03 7.2 °F 5.2 °F 996.5 in Calm   1.6 mph 87 % 0.0 in
20:09 6.9 °F 4.7 °F 996.8 in ESE 1.4 mph 1.6 mph 86 % 0.0 in
20:15 6.7 °F 4.7 °F 996.8 in Calm     87 % 0.0 in
20:21 6.6 °F 4.6 °F 996.5 in Calm   1.6 mph 87 % 0.0 in
20:28 6.6 °F 4.6 °F 996.8 in Calm   1.6 mph 87 % 0.0 in
20:34 6.5 °F 4.5 °F 996.8 in Calm   1.6 mph 87 % 0.0 in
20:40 6.3 °F 4.3 °F 996.8 in Calm   1.6 mph 87 % 0.0 in
20:46 6.2 °F 4.4 °F 996.8 in Calm     88 % 0.0 in
20:52 6.1 °F 4.3 °F 996.8 in Calm     88 % 0.0 in
20:58 5.9 °F 4.1 °F 996.8 in Calm   1.6 mph 88 % 0.0 in
21:04 5.9 °F 4.2 °F 996.8 in Calm   1.6 mph 89 % 0.0 in
21:10 5.8 °F 4.1 °F 996.8 in Calm   1.6 mph 89 % 0.0 in
21:16 5.8 °F 4.0 °F 996.8 in Calm     88 % 0.0 in
21:22 5.8 °F 3.8 °F 996.8 in Calm     87 % 0.0 in
21:28 5.7 °F 3.7 °F 996.8 in Calm     87 % 0.0 in
21:34 5.6 °F 3.6 °F 997.2 in Calm     87 % 0.0 in
21:40 5.7 °F 3.7 °F 997.2 in Calm   1.6 mph 87 % 0.0 in
21:46 5.5 °F 3.5 °F 997.2 in WNW 1.4 mph 1.6 mph 87 % 0.0 in
21:52 4.9 °F 3.2 °F 997.2 in WNW 1.4 mph 1.6 mph 89 % 0.0 in
21:58 4.7 °F 3.2 °F 997.5 in WSW 1.4 mph 3.2 mph 90 % 0.0 in
22:04 5.6 °F 3.4 °F 997.9 in SSW 3.2 mph 8.0 mph 86 % 0.0 in
22:10 5.7 °F 3.2 °F 997.2 in Calm   6.4 mph 84 % 0.0 in
22:16 5.7 °F 3.4 °F 997.2 in Calm   3.2 mph 85 % 0.0 in
22:22 5.6 °F 3.4 °F 997.2 in Calm   1.6 mph 86 % 0.0 in
22:28 6.2 °F 4.2 °F 997.2 in SW 7.9 mph 19.3 mph 87 % 0.0 in
22:34 6.7 °F 4.2 °F 997.2 in SW 6.4 mph 11.3 mph 84 % 0.0 in
22:40 6.6 °F 4.3 °F 997.2 in SSE 1.4 mph 3.2 mph 85 % 0.0 in
22:46 6.4 °F 4.1 °F 997.2 in SSW 1.4 mph 4.8 mph 85 % 0.0 in
22:52 6.3 °F 4.1 °F 997.2 in SW 3.2 mph 3.2 mph 86 % 0.0 in
22:58 6.2 °F 4.0 °F 997.2 in SSW 1.4 mph 3.2 mph 86 % 0.0 in
23:04 6.2 °F 4.0 °F 997.2 in Calm     86 % 0.0 in
23:10 6.1 °F 3.9 °F 997.2 in Calm     86 % 0.0 in
23:16 5.8 °F 3.6 °F 997.2 in Calm     86 % 0.0 in
23:22 5.7 °F 3.7 °F 997.2 in Calm   1.6 mph 87 % 0.0 in
23:28 5.8 °F 3.8 °F 997.2 in Calm     87 % 0.0 in
23:34 5.8 °F 3.6 °F 997.2 in NNW 1.4 mph 1.6 mph 86 % 0.0 in
23:40 5.5 °F 3.5 °F 997.5 in NNW 1.4 mph 1.6 mph 87 % 0.0 in
23:46 5.3 °F 3.3 °F 997.5 in North 1.4 mph 1.6 mph 87 % 0.0 in
23:52 5.2 °F 3.4 °F 997.5 in Calm   1.6 mph 88 % 0.0 in
23:58 5.2 °F 3.4 °F 997.5 in Calm     88 % 0.0 in
Meteo18
Compliments of Weather Underground - 4 mb

Script developed by  Jim McMurry - jmcmurry@mwt.net Adapted for the template by  Wim van der Kuil - Leuven-Template.eu

You find our weather info also at:

European Weather Network

Weather Underground

Equipment we use:

Weather-station
Davis Vue

Weather-program
Meteobridge

Weather-server
Raspberry PI 2 B+

Provider
1 and 1

Davis Vue

Meteobridge

Raspberry PI 2 B+

1 and 1